Home > Weather > Surgut > Past weeks

Flag for Russia Weather for the Past 2 Weeks in Surgut, Russia

Now
32 °F

Clear.


Feels Like: 25 °F
Forecast: 36 / 60 °F
Wind: 8 mph from West

Location: Surgut Airport

Current Time: May 3, 2016 at 5:05:41 AM

Latest Report: May 3, 2016 at 4:30 AM


Visibility: 4 mi

Pressure: 30.21 "Hg

Humidity: 64%

Dew Point: 21 °F

Location of SurgutLocation

Historic Weather in Surgut — Graph

°F

Surgut Temperature Yesterday

Maximum temperature yesterday: 37 °F (at 5:00 PM)
Minimum temperature yesterday: 25 °F (at 2:30 AM)
Average temperature yesterday: 30 °F

High & Low Weather Summary for the Past Weeks

 TemperatureHumidityPressure
High61 °F (Apr 23, 3:30 PM)100% (Apr 18, 4:00 AM)30.39 "Hg (Apr 18, 4:00 AM)
Low23 °F (May 1, 4:00 AM)25% (Apr 29, 4:30 PM)29.62 "Hg (Apr 18, 5:30 PM)
Average39 °F74%30.05 "Hg
* Reported Apr 18 4:00 AM — May 3 4:00 AM, Surgut, Weather by CustomWeather, © 2016

Note: Actual official high and low records may vary slightly from our data, if they occured in-between our weather recording intervals... More about our weather records

Advertising

Surgut Weather History for the Previous 24 Hours

Scroll right to see more
 ConditionsComfort  
Time TempWeatherWind HumidityBarometerVisibility
4:00 AM
Tue, May 3
32 °FClear.10 mph64%30.21 "Hg4 mi
3:30 AM32 °FClear.10 mph64%30.21 "Hg4 mi
3:00 AM32 °FClear.10 mph64%30.21 "Hg4 mi
2:00 AM32 °FClear.6 mph64%30.24 "Hg4 mi
1:30 AM32 °FClear.6 mph60%30.24 "Hg4 mi
1:00 AM32 °FClear.6 mph64%30.24 "Hg4 mi
12:30 AM32 °FClear.6 mph64%30.24 "Hg4 mi
12:00 AM32 °FClear.3 mph64%30.24 "Hg4 mi
11:30 PM
Mon, May 2
32 °FClear.3 mph60%30.27 "Hg4 mi
11:00 PM32 °FClear.3 mph64%30.27 "Hg4 mi
10:30 PM32 °FClear.3 mph55%30.27 "Hg4 mi
10:00 PM30 °FClear.3 mph59%30.30 "Hg4 mi
9:30 PM32 °FClear.1 mph55%30.30 "Hg4 mi
9:00 PM30 °FClear.1 mph59%30.30 "Hg4 mi
8:30 PM30 °FClear.1 mph55%30.30 "Hg4 mi
8:00 PM34 °FClear.6 mph48%30.30 "Hg4 mi
7:30 PM36 °FClear.6 mph44%30.30 "Hg4 mi
7:00 PM36 °FClear.10 mph44%30.30 "Hg4 mi
6:30 PM37 °FClear.10 mph41%30.30 "Hg4 mi
6:00 PM37 °FClear.10 mph45%30.33 "Hg4 mi
5:30 PM37 °FClear.10 mph45%30.33 "Hg4 mi
5:00 PM37 °FClear.10 mph45%30.33 "Hg4 mi
4:30 PM36 °FClear.10 mph44%30.33 "Hg4 mi
4:00 PM36 °FClear.8 mph44%30.36 "Hg4 mi
3:30 PM34 °FClear.13 mph48%30.36 "Hg4 mi
3:00 PM34 °FClear.10 mph51%30.36 "Hg4 mi
2:30 PM34 °FClear.10 mph51%30.36 "Hg4 mi
2:00 PM32 °FScattered clouds.10 mph55%30.36 "Hg4 mi
1:30 PM32 °FScattered clouds.15 mph55%30.36 "Hg4 mi
1:00 PM30 °FScattered clouds.10 mph55%30.36 "Hg4 mi
12:30 PM32 °FScattered clouds.10 mph55%30.36 "Hg4 mi
12:00 PM28 °FPartly sunny.10 mph55%30.39 "Hg4 mi
11:30 AM30 °FPartly sunny.10 mph51%30.36 "Hg4 mi
10:00 AM27 °FSnow flurries. Scattered clouds.13 mph59%30.39 "Hg4 mi
9:30 AM25 °FScattered clouds.13 mph63%30.39 "Hg4 mi
9:00 AM25 °FSnow flurries. Scattered clouds.10 mph69%30.36 "Hg4 mi
8:30 AM25 °FSnow flurries. Scattered clouds.10 mph59%30.36 "Hg4 mi
7:30 AM25 °FScattered clouds.13 mph59%30.36 "Hg4 mi
7:00 AM25 °FScattered clouds.13 mph63%30.36 "Hg4 mi
6:30 AM25 °FScattered clouds.10 mph63%30.33 "Hg4 mi
6:00 AM25 °FSnow flurries. Scattered clouds.10 mph63%30.33 "Hg4 mi
5:30 AM25 °FSnow flurries. Scattered clouds.10 mph74%30.33 "Hg4 mi
Weather by CustomWeather, © 2016

See weather overviewHow to use our weather pages